,,Stat5,,Stat1,,Stat2,,Stat3,,Stat4,,Wind1,,Wind1,
time,status,PA1M_AVG,status,PR1M_SUM,status,RH1M_AVG,status,SR1M_AVG,status,TA1M_AVG,status,W1dAve1m,status,W1sAve1m,
2002-07-01, 00:00:00,VALID,917.293,VALID,0,VALID,98.3586,VALID,-0.0339617,VALID,20.6994,VALID,32,VALID,0.999609,
2002-07-01, 00:01:00,VALID,917.276,VALID,0,VALID,98.3434,VALID,-0.0509425,VALID,20.7097,VALID,32,VALID,0.722439,
2002-07-01, 00:02:00,VALID,917.271,VALID,0,VALID,98.309,VALID,-0.0509425,VALID,20.7059,VALID,28,VALID,0.455882,
2002-07-01, 00:03:00,VALID,917.254,VALID,0,VALID,98.2594,VALID,-0.0339617,VALID,20.6997,VALID,23,VALID,0.306641,
2002-07-01, 00:04:00,VALID,917.252,VALID,0,VALID,98.2556,VALID,-0.0509425,VALID,20.7032,VALID,20,VALID,0.200047,
2002-07-01, 00:05:00,VALID,917.251,VALID,0,VALID,98.2137,VALID,-0.0339617,VALID,20.6962,VALID,20,VALID,0.231027,
2002-07-01, 00:06:00,VALID,917.254,VALID,0,VALID,98.1755,VALID,-0.0169808,VALID,20.687,VALID,20,VALID,0.185352,
2002-07-01, 00:07:00,VALID,917.243,VALID,0,VALID,98.1793,VALID,-0.0679233,VALID,20.6768,VALID,20,VALID,0.108259,
2002-07-01, 00:08:00,VALID,917.246,VALID,0,VALID,98.2022,VALID,-0.0339617,VALID,20.6768,VALID,20,VALID,0,
2002-07-01, 00:09:00,VALID,917.258,VALID,0,VALID,98.1971,VALID,0,VALID,20.6733,VALID,20,VALID,0,
2002-07-01, 00:10:00,VALID,917.257,VALID,0,VALID,98.1895,VALID,0.0169808,VALID,20.6607,VALID,20,VALID,0,
2002-07-01, 00:11:00,VALID,917.262,VALID,0,VALID,98.2378,VALID,-0.0509425,VALID,20.6704,VALID,20,VALID,0,
2002-07-01, 00:12:00,VALID,917.275,VALID,0,VALID,98.2925,VALID,-0.0339617,VALID,20.6836,VALID,19,VALID,0.0046875,
2002-07-01, 00:13:00,VALID,917.279,VALID,0,VALID,98.3306,VALID,-0.0169808,VALID,20.7059,VALID,19,VALID,0.110045,
2002-07-01, 00:14:00,VALID,917.287,VALID,0,VALID,98.3256,VALID,-0.0509425,VALID,20.693,VALID,19,VALID,0.191176,
2002-07-01, 00:15:00,VALID,917.285,VALID,0,VALID,98.3434,VALID,-0.0509425,VALID,20.7064,VALID,19,VALID,0.179883,
2002-07-01, 00:16:00,VALID,917.286,VALID,0,VALID,98.3662,VALID,-0.0849042,VALID,20.7261,VALID,19,VALID,0.0764678,
2002-07-01, 00:17:00,VALID,917.287,VALID,0,VALID,98.3929,VALID,-0.0339617,VALID,20.7288,VALID,19,VALID,0,
2002-07-01, 00:18:00,VALID,917.29,VALID,0,VALID,98.4031,VALID,-0.0509425,VALID,20.7355,VALID,19,VALID,0,
2002-07-01, 00:19:00,VALID,917.296,VALID,0,VALID,98.4171,VALID,-0.0509425,VALID,20.7484,VALID,19,VALID,0,
2002-07-01, 00:20:00,VALID,917.292,VALID,0,VALID,98.4298,VALID,-0.0339617,VALID,20.7514,VALID,19,VALID,0,
2002-07-01, 00:21:00,VALID,917.297,VALID,0,VALID,98.4413,VALID,-0.0509425,VALID,20.7482,VALID,19,VALID,0.225781,
2002-07-01, 00:22:00,VALID,917.3,VALID,0,VALID,98.4654,VALID,-0.0339617,VALID,20.7638,VALID,19,VALID,0.215199,
2002-07-01, 00:23:00,VALID,917.293,VALID,0,VALID,98.4629,VALID,-0.0339617,VALID,20.7745,VALID,19,VALID,0.194196,
2002-07-01, 00:24:00,VALID,917.304,VALID,0,VALID,98.4591,VALID,-0.0339617,VALID,20.774,VALID,19,VALID,0.24707,
2002-07-01, 00:25:00,VALID,917.309,VALID,0,VALID,98.5048,VALID,-0.0339617,VALID,20.7907,VALID,19,VALID,0.180134,
2002-07-01, 00:26:00,VALID,917.306,VALID,0,VALID,98.5239,VALID,-0.0509425,VALID,20.7999,VALID,19,VALID,0.071921,
2002-07-01, 00:27:00,VALID,917.286,VALID,0,VALID,98.5163,VALID,-0.0679233,VALID,20.8235,VALID,19,VALID,0.232422,
2002-07-01, 00:28:00,VALID,917.293,VALID,0,VALID,98.4998,VALID,-0.0339617,VALID,20.8128,VALID,19,VALID,0.0217803,
2002-07-01, 00:29:00,VALID,917.285,VALID,0,VALID,98.5125,VALID,0,VALID,20.8096,VALID,19,VALID,0.142188,
2002-07-01, 00:30:00,VALID,917.284,VALID,0,VALID,98.5201,VALID,0,VALID,20.819,VALID,22,VALID,0.661914,
2002-07-01, 00:31:00,VALID,917.269,VALID,0,VALID,98.501,VALID,-0.0339617,VALID,20.8096,VALID,23,VALID,0.553125,
2002-07-01, 00:32:00,VALID,917.268,VALID,0,VALID,98.5239,VALID,-0.0169808,VALID,20.8163,VALID,20,VALID,0.536075,
2002-07-01, 00:33:00,VALID,917.269,VALID,0,VALID,98.5137,VALID,-0.0339617,VALID,20.8131,VALID,36,VALID,0.643945,
2002-07-01, 00:34:00,VALID,917.269,VALID,0,VALID,98.5061,VALID,-0.0509425,VALID,20.8128,VALID,28,VALID,0.831203,
2002-07-01, 00:35:00,VALID,917.267,VALID,0,VALID,98.4972,VALID,-0.0339617,VALID,20.7999,VALID,23,VALID,0.777009,
2002-07-01, 00:36:00,VALID,917.259,VALID,0,VALID,98.5074,VALID,-0.0169808,VALID,20.7926,VALID,20,VALID,0.682227,
2002-07-01, 00:37:00,VALID,917.253,VALID,0,VALID,98.5112,VALID,-0.0169808,VALID,20.7991,VALID,19,VALID,0.766741,
2002-07-01, 00:38:00,VALID,917.236,VALID,0,VALID,98.5112,VALID,-0.0169808,VALID,20.8028,VALID,25,VALID,0.980928,
2002-07-01, 00:39:00,VALID,917.224,VALID,0,VALID,98.5061,VALID,-0.0169808,VALID,20.7966,VALID,8,VALID,0.822852,
2002-07-01, 00:40:00,VALID,917.217,VALID,0,VALID,98.4794,VALID,-0.0169808,VALID,20.7907,VALID,12,VALID,0.289063,
2002-07-01, 00:41:00,VALID,917.203,VALID,0,VALID,98.487,VALID,0,VALID,20.7759,VALID,11,VALID,0.0470982,
2002-07-01, 00:42:00,VALID,917.197,VALID,0,VALID,98.4794,VALID,0.0169808,VALID,20.7757,VALID,11,VALID,0.075,
2002-07-01, 00:43:00,VALID,917.187,VALID,0,VALID,98.468,VALID,0.0679233,VALID,20.7794,VALID,10,VALID,0.165179,
2002-07-01, 00:44:00,VALID,917.17,VALID,0,VALID,98.4667,VALID,0.0169808,VALID,20.7757,VALID,10,VALID,0.00827206,
2002-07-01, 00:45:00,VALID,917.162,VALID,0,VALID,98.4718,VALID,0.0169808,VALID,20.7466,VALID,33,VALID,0.0519531,
2002-07-01, 00:46:00,VALID,917.143,VALID,0,VALID,98.4807,VALID,0.0339617,VALID,20.7665,VALID,73,VALID,0,
2002-07-01, 00:47:00,VALID,917.13,VALID,0,VALID,98.4667,VALID,0.0169808,VALID,20.7533,VALID,63,VALID,0.0897321,
2002-07-01, 00:48:00,VALID,917.118,VALID,0.2,VALID,98.5188,VALID,0.0509425,VALID,20.7595,VALID,28,VALID,0.791992,
2002-07-01, 00:49:00,VALID,917.106,VALID,0,VALID,98.5583,VALID,0.0169808,VALID,20.7821,VALID,26,VALID,0.711161,
2002-07-01, 00:50:00,VALID,917.092,VALID,0.2,VALID,98.5583,VALID,0.0679233,VALID,20.7956,VALID,15,VALID,0.983915,
2002-07-01, 00:51:00,VALID,917.073,VALID,0.2,VALID,98.5697,VALID,0.0339617,VALID,20.7886,VALID,21,VALID,0.203711,
2002-07-01, 00:52:00,VALID,917.066,VALID,0.4,VALID,98.5048,VALID,0.0509425,VALID,20.7789,VALID,78,VALID,0.502841,
2002-07-01, 00:53:00,VALID,917.044,VALID,0.4,VALID,98.4718,VALID,0.0339617,VALID,20.7533,VALID,211,VALID,0.45,
2002-07-01, 00:54:00,VALID,917.035,VALID,0.2,VALID,98.4451,VALID,0.0339617,VALID,20.7116,VALID,285,VALID,0.629492,
2002-07-01, 00:55:00,VALID,916.988,VALID,0.2,VALID,98.5036,VALID,0.0169808,VALID,20.7051,VALID,10,VALID,0.881473,
2002-07-01, 00:56:00,VALID,916.98,VALID,0,VALID,98.4858,VALID,0.0339617,VALID,20.6658,VALID,181,VALID,0.507583,
2002-07-01, 00:57:00,VALID,916.979,VALID,0.2,VALID,98.5227,VALID,0.0849042,VALID,20.6591,VALID,179,VALID,0.393359,
2002-07-01, 00:58:00,VALID,916.986,VALID,0,VALID,98.4298,VALID,0.0339617,VALID,20.6271,VALID,227,VALID,0.190578,
2002-07-01, 00:59:00,VALID,916.975,VALID,0,VALID,98.4311,VALID,0.0339617,VALID,20.5915,VALID,160,VALID,0.241518,
2002-07-01, 01:00:00,VALID,916.98,VALID,0.2,VALID,98.5074,VALID,0.0169808,VALID,20.5883,VALID,64,VALID,0.416406,
2002-07-01, 01:01:00,VALID,916.971,VALID,0,VALID,98.5544,VALID,0.0169808,VALID,20.6079,VALID,22,VALID,0.443973,
2002-07-01, 01:02:00,VALID,916.978,VALID,0,VALID,98.5735,VALID,0.0169808,VALID,20.5945,VALID,23,VALID,1.00322,
2002-07-01, 01:03:00,VALID,916.964,VALID,0.2,VALID,98.571,VALID,0.0339617,VALID,20.598,VALID,21,VALID,1.41016,
2002-07-01, 01:04:00,VALID,916.961,VALID,0,VALID,98.571,VALID,0.0339617,VALID,20.5953,VALID,22,VALID,1.79332,
2002-07-01, 01:05:00,VALID,916.96,VALID,0,VALID,98.4438,VALID,0.0509425,VALID,20.5398,VALID,8,VALID,1.42232,
2002-07-01, 01:06:00,VALID,916.957,VALID,0.2,VALID,98.379,VALID,0.0339617,VALID,20.4852,VALID,20,VALID,1.76133,
2002-07-01, 01:07:00,VALID,916.943,VALID,0,VALID,98.3713,VALID,0.0169808,VALID,20.4626,VALID,11,VALID,1.20223,
2002-07-01, 01:08:00,VALID,916.948,VALID,0,VALID,98.323,VALID,0.0339617,VALID,20.4434,VALID,3,VALID,1.16475,
2002-07-01, 01:09:00,VALID,916.95,VALID,0.2,VALID,98.3243,VALID,0,VALID,20.4138,VALID,11,VALID,1.36094,
2002-07-01, 01:10:00,VALID,916.938,VALID,0.2,VALID,98.2671,VALID,0.0169808,VALID,20.4079,VALID,8,VALID,1.88352,
2002-07-01, 01:11:00,VALID,916.93,VALID,0,VALID,98.3179,VALID,0.0339617,VALID,20.4082,VALID,13,VALID,1.55335,
2002-07-01, 01:12:00,VALID,916.931,VALID,0,VALID,98.3179,VALID,0.0169808,VALID,20.385,VALID,13,VALID,1.59219,
2002-07-01, 01:13:00,VALID,916.908,VALID,0.2,VALID,98.3421,VALID,0.0339617,VALID,20.3853,VALID,16,VALID,1.75089,
2002-07-01, 01:14:00,VALID,916.907,VALID,0,VALID,98.3306,VALID,0.0339617,VALID,20.3495,VALID,14,VALID,1.48989,
2002-07-01, 01:15:00,VALID,916.914,VALID,0.2,VALID,98.309,VALID,0,VALID,20.3366,VALID,8,VALID,0.868164,
2002-07-01, 01:16:00,VALID,916.924,VALID,0.2,VALID,98.3167,VALID,0.0169808,VALID,20.3075,VALID,360,VALID,1.20786,
2002-07-01, 01:17:00,VALID,916.899,VALID,0,VALID,98.3561,VALID,0.0339617,VALID,20.2948,VALID,3,VALID,0.846875,
2002-07-01, 01:18:00,VALID,916.891,VALID,0.2,VALID,98.4006,VALID,0,VALID,20.2851,VALID,331,VALID,0.739648,
2002-07-01, 01:19:00,VALID,916.884,VALID,0.2,VALID,98.4311,VALID,0,VALID,20.2819,VALID,8,VALID,0.537054,
2002-07-01, 01:20:00,VALID,916.875,VALID,0.2,VALID,98.515,VALID,0,VALID,20.2953,VALID,19,VALID,0.681756,
2002-07-01, 01:21:00,VALID,916.851,VALID,0,VALID,98.5633,VALID,0,VALID,20.3083,VALID,15,VALID,0.724414,
2002-07-01, 01:22:00,VALID,916.84,VALID,0.2,VALID,98.5697,VALID,0.0339617,VALID,20.301,VALID,17,VALID,0.6366,
2002-07-01, 01:23:00,VALID,916.843,VALID,0.2,VALID,98.5824,VALID,0.0169808,VALID,20.2981,VALID,19,VALID,0.954911,
2002-07-01, 01:24:00,VALID,916.838,VALID,0,VALID,98.5799,VALID,0.0509425,VALID,20.2911,VALID,17,VALID,0.444531,
2002-07-01, 01:25:00,VALID,916.82,VALID,0.2,VALID,98.5786,VALID,0.0169808,VALID,20.2752,VALID,24,VALID,1.13036,
2002-07-01, 01:26:00,VALID,916.8,VALID,0,VALID,98.6282,VALID,0.0169808,VALID,20.2789,VALID,9,VALID,0.848575,
2002-07-01, 01:27:00,VALID,916.796,VALID,0.2,VALID,98.6002,VALID,0.0339617,VALID,20.2854,VALID,357,VALID,0.964648,
2002-07-01, 01:28:00,VALID,916.776,VALID,0,VALID,98.5366,VALID,0.0339617,VALID,20.2501,VALID,350,VALID,1.18845,
2002-07-01, 01:29:00,VALID,916.771,VALID,0,VALID,98.6167,VALID,0.0509425,VALID,20.2466,VALID,13,VALID,1.02723,
2002-07-01, 01:30:00,VALID,916.746,VALID,0.2,VALID,98.6384,VALID,0.0169808,VALID,20.2461,VALID,17,VALID,1.02461,
2002-07-01, 01:31:00,VALID,916.737,VALID,0,VALID,98.6524,VALID,0.0339617,VALID,20.2531,VALID,358,VALID,0.802009,
2002-07-01, 01:32:00,VALID,916.725,VALID,0.2,VALID,98.6346,VALID,0.0169808,VALID,20.2364,VALID,349,VALID,0.834789,
2002-07-01, 01:33:00,VALID,916.706,VALID,0,VALID,98.6078,VALID,0.0339617,VALID,20.2079,VALID,340,VALID,0.94707,
2002-07-01, 01:34:00,VALID,916.704,VALID,0.2,VALID,98.6269,VALID,0,VALID,20.1885,VALID,326,VALID,0.826468,
2002-07-01, 01:35:00,VALID,916.688,VALID,0,VALID,98.6524,VALID,0.0169808,VALID,20.1656,VALID,346,VALID,0.798661,
2002-07-01, 01:36:00,VALID,916.681,VALID,0,VALID,98.7248,VALID,0.0169808,VALID,20.1853,VALID,9,VALID,0.908008,
2002-07-01, 01:37:00,VALID,916.68,VALID,0.2,VALID,98.735,VALID,0,VALID,20.1954,VALID,11,VALID,0.910714,
2002-07-01, 01:38:00,VALID,916.667,VALID,0,VALID,98.7274,VALID,0.0169808,VALID,20.1688,VALID,11,VALID,1.20657,
2002-07-01, 01:39:00,VALID,916.651,VALID,0,VALID,98.7617,VALID,0.0169808,VALID,20.1788,VALID,7,VALID,0.714453,
2002-07-01, 01:40:00,VALID,916.665,VALID,0.2,VALID,98.8024,VALID,0.0169808,VALID,20.1952,VALID,5,VALID,0.1759,
2002-07-01, 01:41:00,VALID,916.674,VALID,0,VALID,98.8113,VALID,0,VALID,20.185,VALID,355,VALID,0.652679,
2002-07-01, 01:42:00,VALID,916.669,VALID,0,VALID,98.8049,VALID,0.0169808,VALID,20.1756,VALID,16,VALID,0.893945,
2002-07-01, 01:43:00,VALID,916.69,VALID,0,VALID,98.8266,VALID,0.0339617,VALID,20.1788,VALID,22,VALID,0.312723,
2002-07-01, 01:44:00,VALID,916.685,VALID,0,VALID,98.8825,VALID,0.0679233,VALID,20.2011,VALID,28,VALID,0.369945,
2002-07-01, 01:45:00,VALID,916.69,VALID,0.2,VALID,98.8685,VALID,0.0169808,VALID,20.2081,VALID,16,VALID,0.945313,
2002-07-01, 01:46:00,VALID,916.688,VALID,0,VALID,98.8558,VALID,0.0509425,VALID,20.1984,VALID,14,VALID,1.04048,
2002-07-01, 01:47:00,VALID,916.683,VALID,0,VALID,98.8851,VALID,0.0679233,VALID,20.2044,VALID,25,VALID,0.869196,
2002-07-01, 01:48:00,VALID,916.694,VALID,0,VALID,98.9003,VALID,0.0169808,VALID,20.2044,VALID,21,VALID,0.811523,
2002-07-01, 01:49:00,VALID,916.699,VALID,0.2,VALID,98.9118,VALID,0.0679233,VALID,20.2176,VALID,14,VALID,0.720703,
2002-07-01, 01:50:00,VALID,916.698,VALID,0,VALID,98.9232,VALID,0.0679233,VALID,20.2178,VALID,4,VALID,0.631893,
2002-07-01, 01:51:00,VALID,916.701,VALID,0,VALID,98.9079,VALID,0.0679233,VALID,20.1952,VALID,20,VALID,0.700781,
2002-07-01, 01:52:00,VALID,916.693,VALID,0,VALID,98.9118,VALID,0.0339617,VALID,20.1818,VALID,351,VALID,0.573153,
2002-07-01, 01:53:00,VALID,916.688,VALID,0.2,VALID,98.8965,VALID,0.0169808,VALID,20.1492,VALID,340,VALID,0.532589,
2002-07-01, 01:54:00,VALID,916.671,VALID,0,VALID,98.8863,VALID,0.0509425,VALID,20.1269,VALID,350,VALID,0.274023,
2002-07-01, 01:55:00,VALID,916.672,VALID,0,VALID,98.9168,VALID,0.0509425,VALID,20.137,VALID,353,VALID,0.0381696,
2002-07-01, 01:56:00,VALID,916.668,VALID,0,VALID,98.9334,VALID,0.0339617,VALID,20.1537,VALID,353,VALID,0.118566,
2002-07-01, 01:57:00,VALID,916.661,VALID,0,VALID,98.9525,VALID,0.0509425,VALID,20.1562,VALID,353,VALID,0.0333984,
2002-07-01, 01:58:00,VALID,916.663,VALID,0,VALID,98.9626,VALID,0.0679233,VALID,20.1631,VALID,353,VALID,0.0857008,
2002-07-01, 01:59:00,VALID,916.662,VALID,0,VALID,98.9792,VALID,0.0509425,VALID,20.1756,VALID,312,VALID,0.177009,
2002-07-01, 02:00:00,VALID,916.654,VALID,0.2,VALID,98.9957,VALID,0.0679233,VALID,20.185,VALID,207,VALID,0.0392578,
2002-07-01, 02:01:00,VALID,916.651,VALID,0,VALID,99.0071,VALID,0.0509425,VALID,20.1982,VALID,354,VALID,0.33058,
2002-07-01, 02:02:00,VALID,916.656,VALID,0,VALID,99.0198,VALID,0.0509425,VALID,20.2146,VALID,25,VALID,0.132123,
2002-07-01, 02:03:00,VALID,916.656,VALID,0,VALID,99.03,VALID,0.0679233,VALID,20.2407,VALID,352,VALID,0.232031,
2002-07-01, 02:04:00,VALID,916.654,VALID,0.2,VALID,99.0046,VALID,0.0169808,VALID,20.182,VALID,236,VALID,0.282434,
2002-07-01, 02:05:00,VALID,916.644,VALID,0,VALID,98.9982,VALID,0.0679233,VALID,20.1723,VALID,236,VALID,0.00870536,
2002-07-01, 02:06:00,VALID,916.624,VALID,0,VALID,99.0148,VALID,0.0339617,VALID,20.1718,VALID,236,VALID,0,
2002-07-01, 02:07:00,VALID,916.624,VALID,0,VALID,99.0135,VALID,0.0509425,VALID,20.1915,VALID,236,VALID,0.0415179,
2002-07-01, 02:08:00,VALID,916.634,VALID,0.2,VALID,99.0186,VALID,0.0509425,VALID,20.1818,VALID,236,VALID,0,
2002-07-01, 02:09:00,VALID,916.623,VALID,0,VALID,99.0313,VALID,0.0339617,VALID,20.1855,VALID,239,VALID,0.120117,
2002-07-01, 02:10:00,VALID,916.631,VALID,0,VALID,99.0237,VALID,0,VALID,20.1954,VALID,252,VALID,0.663116,
2002-07-01, 02:11:00,VALID,916.611,VALID,0,VALID,99.0033,VALID,0,VALID,20.1763,VALID,285,VALID,0.378348,
2002-07-01, 02:12:00,VALID,916.612,VALID,0,VALID,99.0084,VALID,-0.101885,VALID,20.1709,VALID,240,VALID,1.29062,
2002-07-01, 02:13:00,VALID,916.636,VALID,0.2,VALID,98.9817,VALID,-0.0849042,VALID,20.1642,VALID,234,VALID,0.904688,
2002-07-01, 02:14:00,VALID,916.634,VALID,0,VALID,98.9906,VALID,-0.0679233,VALID,20.1612,VALID,235,VALID,0.703355,
2002-07-01, 02:15:00,VALID,916.66,VALID,0,VALID,98.9995,VALID,-0.0339617,VALID,20.1674,VALID,235,VALID,0.122852,
2002-07-01, 02:16:00,VALID,916.666,VALID,0,VALID,99.0122,VALID,-0.101885,VALID,20.1706,VALID,235,VALID,0.130682,
2002-07-01, 02:17:00,VALID,916.655,VALID,0,VALID,99.0275,VALID,-0.0509425,VALID,20.1935,VALID,235,VALID,0.0133929,
2002-07-01, 02:18:00,VALID,916.675,VALID,0,VALID,99.0249,VALID,-0.0509425,VALID,20.187,VALID,256,VALID,0.321484,
2002-07-01, 02:19:00,VALID,916.684,VALID,0,VALID,99.0211,VALID,-0.0169808,VALID,20.187,VALID,259,VALID,0.327455,
2002-07-01, 02:20:00,VALID,916.689,VALID,0.2,VALID,99.044,VALID,-0.0169808,VALID,20.193,VALID,259,VALID,0.157169,
2002-07-01, 02:21:00,VALID,916.692,VALID,0,VALID,99.044,VALID,-0.101885,VALID,20.1903,VALID,262,VALID,0.3125,
2002-07-01, 02:22:00,VALID,916.703,VALID,0,VALID,99.044,VALID,-0.0339617,VALID,20.1935,VALID,262,VALID,0.0885417,
2002-07-01, 02:23:00,VALID,916.714,VALID,0,VALID,99.0504,VALID,-0.0679233,VALID,20.2094,VALID,284,VALID,0.114063,
2002-07-01, 02:24:00,VALID,916.725,VALID,0,VALID,99.0758,VALID,-0.0509425,VALID,20.2191,VALID,324,VALID,0.00839844,
2002-07-01, 02:25:00,VALID,916.715,VALID,0.2,VALID,99.0834,VALID,-0.0509425,VALID,20.2352,VALID,337,VALID,0.0819196,
2002-07-01, 02:26:00,VALID,916.693,VALID,0,VALID,99.0911,VALID,-0.0509425,VALID,20.2452,VALID,277,VALID,0.380744,
2002-07-01, 02:27:00,VALID,916.706,VALID,0.2,VALID,99.0783,VALID,-0.0509425,VALID,20.2318,VALID,241,VALID,0.482227,
2002-07-01, 02:28:00,VALID,916.71,VALID,0.2,VALID,99.0885,VALID,-0.0169808,VALID,20.2221,VALID,204,VALID,0.459991,
2002-07-01, 02:29:00,VALID,916.724,VALID,0.2,VALID,99.0885,VALID,-0.0169808,VALID,20.2223,VALID,194,VALID,0.397098,
2002-07-01, 02:30:00,VALID,916.713,VALID,0,VALID,99.0822,VALID,-0.0339617,VALID,20.2091,VALID,195,VALID,0.209961,
2002-07-01, 02:31:00,VALID,916.718,VALID,0.2,VALID,99.0885,VALID,-0.0339617,VALID,20.2034,VALID,195,VALID,0.245982,
2002-07-01, 02:32:00,VALID,916.707,VALID,0,VALID,99.0961,VALID,-0.0339617,VALID,20.193,VALID,201,VALID,0.223575,
2002-07-01, 02:33:00,VALID,916.711,VALID,0.2,VALID,99.1012,VALID,-0.0849042,VALID,20.2,VALID,173,VALID,0.187305,
2002-07-01, 02:34:00,VALID,916.711,VALID,0.4,VALID,99.105,VALID,-0.0679233,VALID,20.2096,VALID,161,VALID,0.841383,
2002-07-01, 02:35:00,VALID,916.669,VALID,0.2,VALID,99.0936,VALID,-0.0339617,VALID,20.197,VALID,168,VALID,0.540625,
2002-07-01, 02:36:00,VALID,916.646,VALID,0.2,VALID,99.0847,VALID,-0.0679233,VALID,20.1639,VALID,114,VALID,0.644727,
2002-07-01, 02:37:00,VALID,916.642,VALID,0.2,VALID,99.0618,VALID,-0.0849042,VALID,20.1453,VALID,120,VALID,0.506027,
2002-07-01, 02:38:00,VALID,916.649,VALID,0.4,VALID,99.0796,VALID,-0.101885,VALID,20.1192,VALID,140,VALID,0.369945,
2002-07-01, 02:39:00,VALID,916.652,VALID,0,VALID,99.0733,VALID,-0.0849042,VALID,20.1033,VALID,157,VALID,0.192383,
2002-07-01, 02:40:00,VALID,916.643,VALID,0.2,VALID,99.0911,VALID,-0.0849042,VALID,20.0998,VALID,200,VALID,0.392756,
2002-07-01, 02:41:00,VALID,916.649,VALID,0,VALID,99.0911,VALID,-0.0509425,VALID,20.0871,VALID,241,VALID,0.444643,
2002-07-01, 02:42:00,VALID,916.645,VALID,0,VALID,99.072,VALID,-0.0849042,VALID,20.0745,VALID,232,VALID,0.442969,
2002-07-01, 02:43:00,VALID,916.631,VALID,0.2,VALID,99.0758,VALID,-0.0679233,VALID,20.0511,VALID,233,VALID,0.161161,
2002-07-01, 02:44:00,VALID,916.626,VALID,0,VALID,99.0923,VALID,-0.0679233,VALID,20.0481,VALID,236,VALID,0.0795037,
2002-07-01, 02:45:00,VALID,916.623,VALID,0,VALID,99.0974,VALID,-0.0509425,VALID,20.0576,VALID,263,VALID,0.187695,
2002-07-01, 02:46:00,VALID,916.646,VALID,0.2,VALID,99.1089,VALID,-0.0679233,VALID,20.0675,VALID,273,VALID,0,
2002-07-01, 02:47:00,VALID,916.651,VALID,0.2,VALID,99.1114,VALID,-0.0679233,VALID,20.0745,VALID,259,VALID,0.219643,
2002-07-01, 02:48:00,VALID,916.665,VALID,0,VALID,99.0974,VALID,-0.0679233,VALID,20.0643,VALID,226,VALID,0.344922,
2002-07-01, 02:49:00,VALID,916.669,VALID,0.2,VALID,99.1139,VALID,-0.0339617,VALID,20.0411,VALID,228,VALID,0.234598,
2002-07-01, 02:50:00,VALID,916.652,VALID,0.4,VALID,99.0974,VALID,-0.0339617,VALID,20.0446,VALID,228,VALID,0.113281,
2002-07-01, 02:51:00,VALID,916.622,VALID,0.2,VALID,99.1089,VALID,-0.0509425,VALID,20.0382,VALID,321,VALID,0.292383,
2002-07-01, 02:52:00,VALID,916.6,VALID,0.2,VALID,99.1038,VALID,-0.0679233,VALID,20.0414,VALID,78,VALID,0.610559,
2002-07-01, 02:53:00,VALID,916.59,VALID,0.4,VALID,99.1012,VALID,-0.0679233,VALID,20.0384,VALID,81,VALID,0.578795,
2002-07-01, 02:54:00,VALID,916.59,VALID,0.4,VALID,99.1089,VALID,-0.0339617,VALID,20.0387,VALID,83,VALID,0.8875,
2002-07-01, 02:55:00,VALID,916.58,VALID,0.4,VALID,99.1165,VALID,-0.0169808,VALID,20.0419,VALID,73,VALID,0.821875,
2002-07-01, 02:56:00,VALID,916.582,VALID,0.2,VALID,99.1139,VALID,-0.0509425,VALID,20.029,VALID,56,VALID,0.731618,
2002-07-01, 02:57:00,VALID,916.584,VALID,0.4,VALID,99.1343,VALID,-0.0339617,VALID,20.0451,VALID,39,VALID,0.776367,
2002-07-01, 02:58:00,VALID,916.591,VALID,0.2,VALID,99.1394,VALID,-0.0339617,VALID,20.0583,VALID,34,VALID,0.869792,
2002-07-01, 02:59:00,VALID,916.573,VALID,0.4,VALID,99.1381,VALID,-0.0509425,VALID,20.0511,VALID,37,VALID,0.90692,
2002-07-01, 03:00:00,VALID,916.544,VALID,0.4,VALID,99.133,VALID,-0.0169808,VALID,20.0484,VALID,74,VALID,1.24727,
2002-07-01, 03:01:00,VALID,916.515,VALID,0.2,VALID,99.1305,VALID,-0.0339617,VALID,20.0352,VALID,85,VALID,1.32612,
2002-07-01, 03:02:00,VALID,916.521,VALID,0,VALID,99.133,VALID,-0.0509425,VALID,20.0126,VALID,88,VALID,1.03608,
2002-07-01, 03:03:00,VALID,916.528,VALID,0,VALID,99.1445,VALID,0,VALID,20.0091,VALID,86,VALID,0.276758,
2002-07-01, 03:04:00,VALID,916.549,VALID,0,VALID,99.147,VALID,-0.0339617,VALID,20.0287,VALID,7,VALID,0.475379,
2002-07-01, 03:05:00,VALID,916.546,VALID,0,VALID,99.1648,VALID,-0.0679233,VALID,20.0325,VALID,356,VALID,0.316295,
2002-07-01, 03:06:00,VALID,916.538,VALID,0,VALID,99.1724,VALID,0,VALID,20.019,VALID,336,VALID,0.421875,
2002-07-01, 03:07:00,VALID,916.529,VALID,0,VALID,99.1902,VALID,-0.0509425,VALID,20.0389,VALID,322,VALID,0.574777,
2002-07-01, 03:08:00,VALID,916.542,VALID,0.2,VALID,99.1864,VALID,-0.0679233,VALID,20.029,VALID,327,VALID,0.566176,
2002-07-01, 03:09:00,VALID,916.531,VALID,0,VALID,99.208,VALID,-0.0679233,VALID,20.0357,VALID,9,VALID,0.636523,
2002-07-01, 03:10:00,VALID,916.551,VALID,0.6,VALID,99.2004,VALID,-0.0509425,VALID,20.0255,VALID,18,VALID,0.974905,
2002-07-01, 03:11:00,VALID,916.549,VALID,0.2,VALID,99.1979,VALID,-0.0679233,VALID,20.0352,VALID,1,VALID,0.841741,
2002-07-01, 03:12:00,VALID,916.534,VALID,0.6,VALID,99.1991,VALID,-0.0679233,VALID,20.026,VALID,7,VALID,0.99043,
2002-07-01, 03:13:00,VALID,916.506,VALID,0.6,VALID,99.1966,VALID,-0.101885,VALID,20.0392,VALID,358,VALID,0.935714,
2002-07-01, 03:14:00,VALID,916.511,VALID,0.8,VALID,99.2093,VALID,-0.0679233,VALID,20.0193,VALID,359,VALID,0.499311,
2002-07-01, 03:15:00,VALID,916.509,VALID,0.6,VALID,99.2106,VALID,-0.0849042,VALID,20.0163,VALID,1,VALID,0.126953,
2002-07-01, 03:16:00,VALID,916.497,VALID,0.8,VALID,99.2157,VALID,-0.0679233,VALID,20.0098,VALID,5,VALID,0.369081,
2002-07-01, 03:17:00,VALID,916.452,VALID,0.4,VALID,99.2246,VALID,-0.0849042,VALID,20.0131,VALID,21,VALID,0.946652,
2002-07-01, 03:18:00,VALID,916.436,VALID,0.6,VALID,99.2233,VALID,-0.0849042,VALID,20.0096,VALID,30,VALID,1.12754,
2002-07-01, 03:19:00,VALID,916.419,VALID,0.4,VALID,99.2322,VALID,-0.101885,VALID,20.0163,VALID,40,VALID,1.29665,
2002-07-01, 03:20:00,VALID,916.404,VALID,0.4,VALID,99.2373,VALID,-0.0849042,VALID,20.0061,VALID,50,VALID,1.5023,
2002-07-01, 03:21:00,VALID,916.384,VALID,0.4,VALID,99.2322,VALID,-0.0509425,VALID,20.0004,VALID,61,VALID,1.26113,
2002-07-01, 03:22:00,VALID,916.376,VALID,0.4,VALID,99.2424,VALID,-0.101885,VALID,19.9872,VALID,58,VALID,1.28362,
2002-07-01, 03:23:00,VALID,916.367,VALID,0.4,VALID,99.2437,VALID,-0.101885,VALID,19.9614,VALID,63,VALID,1.22746,
2002-07-01, 03:24:00,VALID,916.364,VALID,0.2,VALID,99.2373,VALID,-0.101885,VALID,19.9326,VALID,70,VALID,1.23887,
2002-07-01, 03:25:00,VALID,916.364,VALID,0,VALID,99.2424,VALID,-0.101885,VALID,19.9293,VALID,55,VALID,0.894643,
2002-07-01, 03:26:00,VALID,916.361,VALID,0.2,VALID,99.2665,VALID,-0.0509425,VALID,19.935,VALID,25,VALID,1.25092,
2002-07-01, 03:27:00,VALID,916.373,VALID,0,VALID,99.2576,VALID,0,VALID,19.9149,VALID,42,VALID,1.27188,
2002-07-01, 03:28:00,VALID,916.381,VALID,0.2,VALID,99.2576,VALID,-0.0169808,VALID,19.902,VALID,26,VALID,1.12216,
2002-07-01, 03:29:00,VALID,916.385,VALID,0,VALID,99.2665,VALID,0.0169808,VALID,19.8821,VALID,21,VALID,1.06295,
2002-07-01, 03:30:00,VALID,916.411,VALID,0,VALID,99.2678,VALID,0,VALID,19.8727,VALID,25,VALID,0.85625,